Regional Weather Roundup
Issued by NWS

Home | Current Version | Previous Version | Graphics & Text | Print | Product List | Glossary Off
Versions: 1 2 3 4 5 6 7 8 9 10 11 12 13 14 15 16 17 18 19 20 21 22 23 24 25 26 27 28 29 30 31 32 33 34 35 36 37 38 39 40 41 42 43 44 45 46 47 48 49 50

000
ASUS43 KTOP 051408
RWRKS

WEATHER ROUNDUP FOR KANSAS
NATIONAL WEATHER SERVICE GOODLAND KS
800 AM CST FRI FEB 05 2016

NOTE:  "FAIR" INDICATES FEW OR NO CLOUDS BELOW 12,000 FEET WITH NO
SIGNIFICANT WEATHER AND/OR OBSTRUCTIONS TO VISIBILITY.

KSZ001>006-013>018-027>032-041>047-051500-
NORTHWEST KANSAS

CITY           SKY/WX    TMP DP  RH WIND       PRES   REMARKS
GOODLAND       CLOUDY    27  24  89 W9        30.27R
HAYS           CLOUDY    21   9  58 SE6       30.32F
HILL CITY      CLOUDY    25  18  74 W6        30.33R
RUSSELL        CLOUDY    23  19  85 E5        30.33S
$$

KSZ061>065-074>080-084>089-051500-
SOUTHWEST KANSAS

CITY           SKY/WX    TMP DP  RH WIND       PRES   REMARKS
DODGE CITY     PTCLDY    23  18  81 E8        30.27S
ELKHART          N/A     24  12  60 N12         N/A  WCI  13
GARDEN CITY    CLOUDY    24  16  71 NE12      30.27R WCI  13
GREAT BEND     CLOUDY    25  16  68 CALM      30.34S
LIBERAL        CLOUDY    28  14  54 E14       30.17S WCI  17
PRATT          PTCLDY    23  17  80 E6        30.33R
$$

KSZ066>073-081>083-090>101-051500-
SOUTHEAST KANSAS

CITY           SKY/WX    TMP DP  RH WIND       PRES   REMARKS
CHANUTE        CLOUDY    28  20  71 E3        30.40R
COFFEYVILLE    CLOUDY    26  22  84 CALM      30.41R
HUTCHINSON     PTCLDY    24  19  81 NW5       30.38R
MEDICINE LODGE   N/A     27  21  78 E8        30.32F
NEWTON         CLOUDY    25  18  74 N3        30.38R
PARSONS        CLOUDY    29  20  69 CALM      30.41R
WICHITA INTL   MOCLDY    29  20  69 NE3       30.37R
WICHITA JABRA  CLOUDY    25  21  85 NE3       30.37R
WICHITA MCCONL CLOUDY    27  20  76 E5        30.37R
WINFIELD       CLOUDY    29  20  69 E3        30.39R
$$

KSZ007>012-019>026-033>040-048>060-102>105-051500-
NORTHEAST KANSAS

CITY           SKY/WX    TMP DP  RH WIND       PRES   REMARKS
CONCORDIA      CLOUDY    25  19  78 SW3       30.36S
EMPORIA        CLOUDY    23  20  88 CALM      30.39R
LAWRENCE       CLOUDY    21  17  84 CALM      30.42R
MANHATTAN      CLOUDY    22  20  92 CALM      30.40S
MARYSVILLE     CLOUDY    25  21  86 SW6       30.39R
OLATHE IND     PTCLDY    25  21  85 E3        30.42R
OLATHE EXE     CLOUDY    24  20  84 SE3       30.41R
SALINA         CLOUDY    26  20  77 NW7       30.40R
TOPEKA BILLARD CLOUDY    24  19  81 CALM      30.42R
TOPEKA FORBES  PTCLDY    23  19  85 CALM      30.40R
$$



USA.gov is the U.S. government's official web portal to all federal, state and local government web resources and services.